Location: Cabeza de los Veneras
(40.2000°N, 5.2000°W)
Time: 02:52:52
(UTC+00:00)

Milstar 3 - Pass Details

Date: 18 April 2024
Orbit: 1098 x 5147 km, 28.2° (Epoch: 25 May)

Event Time Altitude Azimuth Distance (km) Brightness Sun altitude
Rises 19:48:52 0° 238° (WSW) 4,244 6.4 -9.1°
Reaches altitude 10° 19:51:26 10° 231° (SW) 3,489 5.8 -9.5°
Maximum altitude 19:59:38 42° 162° (SSE) 2,578 4.4 -11.0°
Enters shadow 20:13:03 12° 100° (E) 5,754 5.9 -13.2°
